CAPE
619 675 896 948 954 745 614 713 830 1062 1230 1149 1048 1019 955 991 993 920 806 707 851 866 888 856 796 843 841 754 529 485 369 347 311 319 273 412 397 331 347 287 262 290 315
669 910 948 967 1003 813 640 742 928 1151 1355 1300 1261 1176 1128 1120 1061 962 929 958 1037 990 886 935 846 763 739 644 561 467 377 272 269 280 280 360 297 367 324 230 208 228 245
671 786 988 991 1100 986 754 748 1000 1247 1459 1453 1342 1219 1230 1209 1097 1061 1094 1082 1048 957 778 873 822 862 796 592 434 353 307 277 228 216 183 160 259 334 206 138 115 130 130
793 794 962 1036 1119 1073 951 733 1144 1429 1518 1501 1374 1293 1233 1154 1106 1195 1164 1118 1002 747 823 897 943 814 658 459 332 286 181 109 61 48 32 65 170 238 244 213 175 139 119
864 786 987 1108 1185 1132 979 874 904 1522 1545 1561 1472 1344 1203 1091 1091 1234 1146 1040 925 888 995 1011 883 675 477 325 248 120 41 19 8 1 0 4 14 43 32 45 55 53 45
894 876 1025 1124 1175 1215 1036 1096 875 1035 1363 1532 1430 1342 1280 1227 1209 1190 1003 833 776 803 805 730 790 457 331 231 82 23 0 0 0 0 0 1 6 10 4 5 6 4 5
969 977 1036 1167 1252 1339 1230 1114 1153 866 992 1248 1308 1281 1196 1220 1173 1038 853 669 812 810 710 675 507 302 154 85 26 0 0 0 0 0 0 0 3 9 6 5 5 7 4
952 1117 1123 1193 1308 1332 1302 1110 760 1134 1013 906 1148 1154 1078 831 778 885 782 672 620 809 580 483 357 177 83 30 0 0 1 0 0 0 0 0 7 1 8 7 4 5 13
966 1041 1120 1179 1312 1317 1322 847 423 396 730 1002 632 620 548 437 311 333 444 632 641 495 409 292 196 109 35 2 0 0 0 0 0 0 0 0 16 14 5 5 6 2 5
893 1000 1031 1143 1330 1227 715 549 642 335 325 347 310 137 45 149 128 164 363 412 446 349 282 245 120 73 22 0 0 0 0 0 0 0 0 4 10 6 9 11 7 7 3
678 652 783 1038 1055 869 647 409 272 242 301 292 167 34 86 115 79 144 127 305 354 228 223 91 54 31 0 0 0 0 0 0 0 0 0 6 17 16 17 9 4 5 10
415 348 503 719 693 486 561 573 223 137 110 62 62 24 63 68 78 11 40 119 127 139 52 6 1 0 0 0 0 0 0 0 0 0 0 5 1 9 2 2 8 7 9
320 362 374 349 217 168 205 222 92 24 1 0 0 16 0 1 82 75 4 47 97 62 0 0 0 0 0 0 0 0 0 0 0 0 0 7 8 13 15 8 8 7 4
225 261 238 187 168 40 39 81 81 81 4 2 4 2 24 10 51 5 23 27 46 0 0 0 0 0 0 0 0 0 0 0 0 0 3 6 10 8 3 7 10 7 2
158 209 110 70 80 33 28 28 27 18 2 1 1 1 6 15 30 0 9 37 33 0 0 0 0 0 0 0 0 0 0 0 0 0 1 8 8 5 4 7 9 8 10
122 78 41 44 47 17 18 10 13 1 0 1 2 2 6 13 40 17 27 22 4 0 0 0 0 0 0 0 0 0 0 0 0 0 0 5 5 4 5 2 10 8 10
70 44 43 31 18 9 0 2 1 1 2 2 1 1 15 16 32 63 36 3 2 0 0 0 0 0 0 0 0 0 0 0 0 0 0 0 4 6 6 6 5 6 5
58 48 32 27 14 2 0 3 2 2 2 1 2 2 3 40 78 84 26 3 0 0 0 0 0 0 0 0 0 0 0 0 0 0 0 0 0 0 4 5 5 8 8
59 49 28 27 0 0 0 5 6 1 3 4 0 2 2 72 89 42 3 10 0 0 0 0 0 0 0 0 0 0 0 0 0 0 0 0 0 0 0 2 1 2 3
58 51 27 15 1 1 0 7 7 0 3 2 4 14 4 56 21 8 0 2 0 0 0 0 0 0 0 0 0 0 0 0 0 0 0 0 0 0 0 0 0 0 0
40 45 12 0 1 2 0 2 3 1 0 0 1 6 8 3 1 0 8 1 0 0 0 0 0 0 0 0 0 0 0 0 0 0 0 0 0 0 0 0 0 0 0
45 28 0 0 1 1 1 2 1 0 0 0 0 1 11 8 0 0 1 0 0 0 0 0 0 0 0 0 0 0 0 0 0 0 0 0 0 0 0 0 0 0 0
43 6 0 0 3 1 1 1 1 0 0 0 0 1 2 6 3 0 0 0 0 0 0 0 0 0 0 0 0 0 0 0 0 0 0 0 0 0 0 0 0 0 0
32 0 0 0 2 1 1 3 1 0 0 2 0 1 1 2 4 0 0 0 0 0 0 0 0 0 0 0 0 0 0 0 0 0 0 0 0 0 0 0 0 0 0
16 0 0 0 1 0 1 3 3 1 0 0 1 0 1 1 0 0 0 0 0 0 0 0 0 0 0 0 0 0 0 0 0 0 0 0 0 9 1 7 4 0 0
6 0 0 0 0 2 1 0 1 0 0 0 0 0 3 0 0 1 2 0 0 0 0 0 2 9 22 6 0 6 6 5 5 0 0 0 0 0 1 20 9 3 0
CIN
-240 -280 -206 -179 -153 -177 -192 -160 -124 -91 -85 -95 -87 -91 -89 -74 -68 -55 -43 -48 -20 -8 -11 -9 -3 0 0 0 0 0 -4 -2 -3 -1 -3 -1 0 0 0 -2 -5 0 -1
-239 -256 -216 -178 -156 -176 -189 -159 -110 -89 -67 -72 -73 -73 -71 -55 -51 -48 -27 -12 -1 0 0 0 0 0 0 0 0 -1 0 -3 -4 -3 -11 -6 0 0 0 -4 -12 0 0
-239 -267 -209 -176 -133 -134 -159 -156 -98 -77 -62 -59 -62 -65 -54 -47 -44 -33 -16 -11 -8 -1 -3 0 0 0 0 0 -3 -3 -2 -4 -8 -15 -19 -27 -8 0 -13 -43 -36 -30 -14
-238 -256 -222 -180 -130 -108 -114 -120 -57 -22 -33 -47 -58 -61 -59 -57 -50 -24 -6 -3 -4 -9 -1 0 0 0 0 0 -13 -25 -35 -63 -97 -122 -150 -118 -33 -14 -11 -27 -12 -21 -11
-234 -263 -230 -178 -117 -101 -112 -97 -62 -3 -10 -27 -45 -52 -52 -62 -53 -13 -4 -1 -1 0 0 0 0 0 0 -12 -32 -78 -141 -235 -278 -99 0 -82 -219 -123 -148 -143 -91 -73 -53
-254 -250 -216 -182 -139 -80 -68 -56 -75 -41 -17 -12 -22 -28 -31 -32 -23 -10 -12 -5 -2 -3 -1 0 0 -3 -35 -57 -102 -170 -7 -9 0 0 0 -17 -14 -6 -7 0 -3 -2 -6
-244 -248 -223 -170 -111 -49 -24 -27 -26 -66 -39 -21 -23 -31 -31 -15 -16 -36 -17 -14 -3 -2 -1 0 0 -17 -60 -95 -157 0 0 0 0 0 0 0 -13 -4 -2 0 -1 -4 -4
-201 -191 -201 -153 -75 -26 -10 -13 -41 -29 -36 -35 -20 -15 -15 -51 -6 -2 -3 -3 -2 -1 0 -6 -16 -35 -78 -130 0 0 -108 0 0 0 0 -5 -4 -1 0 -1 0 -1 -1
-200 -170 -164 -130 -41 -8 -5 -19 -31 -25 -11 -4 -6 0 -3 -9 -25 -8 -6 0 -2 -1 -6 -15 -34 -62 -118 -90 0 0 0 0 0 0 0 -1 -3 -1 -2 0 -2 -1 -1
-217 -171 -150 -105 -20 -9 -33 -30 -21 -23 -41 -18 -16 -56 -9 -10 -10 -3 -6 -4 -1 -10 -23 -19 -47 -88 -165 0 0 0 0 0 0 0 0 -5 -1 0 0 -2 -1 -3 -5
-260 -242 -201 -98 -47 -45 -41 -47 -45 -42 -44 -41 -54 -129 -52 -1 -4 -13 -5 -11 -3 -23 -18 -64 -77 -85 0 0 0 0 0 0 0 0 0 -4 -2 0 -2 -2 -2 -1 0
-268 -283 -238 -130 -99 -113 -70 -54 -65 -53 -77 -72 -53 -80 -56 -53 -24 -24 -18 -6 -14 -23 -29 -36 -127 0 0 0 0 0 0 0 0 0 0 -5 -1 -1 -2 0 0 0 0
-283 -285 -245 -197 -185 -173 -123 -83 -136 -172 -76 -6 -4 -78 0 -17 -13 -5 -67 -3 -19 -23 0 0 0 0 0 0 0 0 0 0 0 0 0 -1 -1 -1 0 0 0 -3 -3
-315 -298 -305 -250 -203 -231 -212 -134 -130 -103 -57 0 0 0 -55 -43 0 -79 -53 -46 -23 0 0 0 0 0 0 0 0 0 0 0 0 0 -3 -1 -1 0 0 -3 0 -2 0
-324 -307 -340 -296 -223 -242 -229 -222 -206 -163 0 0 0 0 -57 -29 -8 0 -60 -15 -31 0 0 0 0 0 0 0 0 0 0 0 0 0 -5 -4 -1 -1 -3 0 0 0 0
-335 -370 -373 -305 -237 -270 -257 -260 -215 -16 0 0 0 0 -55 -44 -19 -28 -16 -35 -62 0 0 0 0 0 0 0 0 0 0 0 0 0 0 -6 -3 -3 -2 -2 0 0 0
-384 -395 -352 -308 -272 -274 -20 -55 -44 -35 0 0 0 0 -32 -38 -14 -1 -8 -14 -17 0 0 0 0 0 0 0 0 0 0 0 0 0 0 0 -4 -2 -2 -1 0 0 0
-448 -364 -381 -339 -292 -42 0 -52 -46 -18 -4 0 0 0 -4 -5 0 0 -12 -17 0 0 0 0 0 0 0 0 0 0 0 0 0 0 0 0 0 -2 -3 -1 -1 0 0
-402 -391 -379 -336 0 0 0 -13 -37 -9 -9 -9 0 0 0 0 0 -3 -34 -98 0 0 0 0 0 0 0 0 0 0 0 0 0 0 0 0 0 0 0 -2 -2 -1 0
-414 -409 -370 -337 0 -15 -1 -24 -28 0 -4 -7 -1 0 -6 0 -1 -21 0 -100 0 0 0 0 0 0 0 0 0 0 0 0 0 0 0 0 0 0 0 0 0 0 0
-426 -414 -411 0 -1 -9 0 0 -23 -4 -3 -2 0 -8 -19 -1 0 0 -127 -76 0 0 0 0 0 0 0 0 0 0 0 0 0 0 0 0 0 0 0 0 0 0 0
-426 -438 0 0 -2 -6 -10 0 0 0 -1 -3 0 -7 -21 -40 -6 0 -69 0 0 0 0 0 0 0 0 0 0 0 0 0 0 0 0 0 0 0 0 0 0 0 0
-450 -295 0 0 0 -5 -6 -1 -2 -7 -3 0 0 0 -16 -18 -77 0 0 0 0 0 0 0 0 0 0 0 -72 0 0 -1 0 0 0 0 0 0 0 0 0 0 0
-531 0 0 0 0 -3 -4 -16 0 0 0 0 0 0 0 -36 -22 0 0 0 0 0 0 0 0 0 0 0 0 0 0 0 0 0 0 0 0 0 0 0 0 0 0
-616 0 0 0 0 0 -1 -13 -17 -13 0 -2 0 0 0 0 0 -2 0 0 0 0 0 0 0 0 0 0 0 0 0 0 0 0 0 0 0 -194 -85 -265 -286 0 0
-662 0 0 0 0 0 0 -7 -16 -12 0 0 0 0 -18 0 0 0 0 0 0 0 0 0 -32 -80 -65 -80 0 -86 -92 -80 -119 0 0 0 0 0 -82 -247 -276 -91 -32
Wind_Speed
7 6 5 5 4 4 4 4 4 4 7 9 10 9 8 8 8 8 7 7 7 8 8 8 7 7 8 9 9 11 12 13 14 15 15 16 17 18 18 19 19 21 21
8 6 5 5 4 3 3 3 4 5 6 7 9 10 10 8 7 7 6 6 6 5 5 6 5 6 8 10 11 13 13 14 15 15 15 16 17 18 19 20 21 21 22
8 7 5 4 3 2 3 4 4 4 6 7 8 10 10 9 8 6 6 6 6 5 5 6 6 6 8 11 11 12 13 13 13 12 13 14 16 18 18 19 20 20 20
7 6 4 4 3 2 3 4 4 4 5 7 8 10 11 11 10 7 5 4 4 5 6 6 7 7 9 11 11 11 11 11 11 10 10 11 13 14 15 17 16 16 16
7 6 5 4 3 3 4 5 5 5 6 8 9 10 11 11 11 9 7 4 4 4 5 7 8 9 9 9 9 9 9 9 9 8 8 8 9 11 12 12 14 14 15
7 6 5 3 2 1 3 5 6 6 7 7 8 9 9 10 10 10 9 7 5 4 4 6 8 9 8 8 9 8 8 7 6 5 6 7 8 10 11 10 10 9 10
6 6 5 3 2 0 2 4 6 7 7 8 9 9 10 9 10 11 10 10 8 6 5 6 8 9 8 7 7 7 7 6 5 5 6 6 8 12 11 12 10 10 10
8 7 8 5 4 4 3 4 6 7 8 9 9 10 10 9 8 8 8 9 8 7 7 8 8 7 7 6 7 5 6 5 4 6 6 6 10 11 10 11 11 11 12
9 7 9 10 6 5 4 5 6 7 8 7 6 13 9 12 11 9 7 9 8 8 8 7 8 8 8 6 7 6 4 3 4 4 4 8 11 10 10 10 10 11 12
10 8 10 13 10 8 6 5 5 4 5 6 6 2 15 11 8 10 12 9 9 10 8 8 8 9 8 7 6 5 3 2 2 2 5 7 9 10 10 10 9 10 11
10 11 12 12 9 7 5 4 1 2 3 7 8 6 15 21 13 9 9 8 9 11 10 8 9 8 7 6 5 3 1 1 1 2 3 9 9 9 9 9 9 10 11
10 9 11 9 7 8 8 3 3 2 1 4 6 7 6 6 12 11 9 8 10 11 10 11 9 8 6 5 3 2 3 2 2 1 4 7 9 9 9 10 10 10 10
7 6 8 8 8 8 6 5 2 2 2 4 6 7 9 8 11 8 8 14 9 9 9 9 9 9 7 6 4 5 2 2 3 1 4 6 8 9 9 9 9 9 10
5 4 8 9 8 7 6 4 2 1 2 4 5 8 10 10 9 9 17 17 12 9 10 9 9 8 8 7 5 4 3 1 0 1 4 6 7 7 8 9 9 9 9
5 3 7 9 7 7 6 4 3 1 2 3 4 7 10 13 11 8 10 21 15 12 10 9 9 9 8 6 4 3 1 1 2 1 1 4 5 5 7 7 6 6 8
2 1 6 8 7 6 5 3 3 2 0 3 5 8 11 13 12 16 14 17 16 13 11 9 9 9 8 7 5 3 5 3 5 2 2 2 2 3 4 5 5 4 6
2 3 4 5 7 6 5 5 3 3 2 2 5 8 11 13 15 17 19 20 18 14 12 10 10 11 9 9 6 4 4 5 8 5 3 1 1 2 1 2 2 3 3
2 1 4 6 6 5 7 6 4 3 1 2 3 10 12 14 16 16 17 22 16 14 12 13 11 11 10 9 7 6 5 8 10 7 6 4 3 4 2 1 2 2 1
3 2 2 4 4 5 7 6 5 3 2 1 4 5 10 16 18 15 24 21 14 14 14 12 14 13 10 12 11 8 6 8 10 10 8 7 5 5 4 3 3 4 5
3 3 3 4 5 5 6 7 6 4 4 4 10 10 11 24 17 17 22 20 14 14 14 13 13 13 14 12 12 11 9 11 11 11 11 9 8 6 6 8 7 7 5
4 3 3 4 5 5 6 6 5 4 5 4 9 11 9 22 19 23 20 17 15 15 15 16 16 13 13 10 12 12 15 12 12 14 13 14 13 11 10 10 10 9 10
9 7 5 5 7 6 6 6 6 5 5 3 5 5 10 17 18 20 17 16 15 16 14 14 14 15 16 11 15 13 18 18 18 17 17 16 16 15 15 16 15 15 14
13 10 8 7 7 6 7 8 8 8 5 5 3 6 5 13 14 16 16 16 13 15 16 14 14 14 11 13 12 15 17 21 19 16 19 19 19 20 20 19 19 18 17
14 8 7 7 7 6 7 8 10 11 9 3 3 3 8 7 12 16 16 16 15 14 16 14 15 15 15 14 15 18 16 14 17 22 19 20 21 23 15 19 24 23 22
8 9 8 7 6 5 7 8 8 9 10 10 4 1 8 12 13 13 16 18 17 15 16 14 15 16 15 15 16 16 17 18 18 20 24 24 25 24 23 19 25 26 24
7 6 9 6 5 5 6 7 8 9 8 7 7 2 2 7 15 15 13 17 17 16 18 18 17 16 17 19 17 17 18 18 20 23 27 23 24 23 23 23 24 22 20
Wind_Direction
359 19 46 59 64 70 62 59 60 80 118 132 138 140 141 138 130 121 113 105 101 104 110 108 94 82 80 76 75 78 78 77 75 77 75 72 70 68 64 63 62 63 63
19 44 69 79 86 92 94 78 80 94 121 135 140 139 138 140 139 133 120 109 102 104 110 117 105 89 87 89 89 84 79 79 80 78 77 74 71 70 68 66 66 65 65
21 37 58 70 71 94 120 115 114 116 127 139 147 146 144 143 146 147 138 122 111 104 106 115 112 103 101 100 97 89 82 81 80 76 70 67 69 73 70 67 66 66 64
18 32 62 90 94 115 131 139 127 128 137 147 152 154 152 149 148 151 154 140 130 119 114 116 116 113 112 107 102 95 89 86 81 75 65 64 66 65 64 65 59 59 59
28 43 73 82 81 117 141 151 151 147 152 155 160 159 158 157 152 150 148 153 147 140 131 124 117 116 115 111 105 101 93 89 85 74 64 55 50 55 54 53 58 60 62
39 38 39 69 68 116 150 160 171 169 170 170 171 172 173 167 160 155 151 147 149 154 145 136 124 120 116 114 110 105 98 91 84 65 55 54 45 53 55 54 50 44 43
9 12 10 14 24 69 198 190 182 187 184 187 188 189 188 189 175 165 159 150 149 152 156 147 134 128 126 124 114 107 100 93 83 63 50 47 57 68 69 65 59 54 46
347 340 344 345 344 317 266 223 194 194 192 197 205 206 200 191 209 184 171 158 158 164 154 149 147 143 142 134 116 116 104 94 75 65 57 52 69 76 68 69 65 63 65
342 341 335 333 329 317 284 259 227 199 193 194 214 246 199 232 211 220 200 161 152 153 159 161 157 154 148 140 122 114 110 97 73 61 58 65 82 75 71 68 70 68 70
341 344 339 328 324 324 314 295 277 262 248 222 144 146 260 247 177 197 224 156 154 145 152 179 169 162 152 140 135 116 106 94 70 40 62 72 80 83 79 74 68 69 71
340 346 339 334 338 343 340 324 305 253 224 190 193 208 272 259 242 164 200 178 155 141 144 174 176 168 162 149 133 129 171 258 323 353 69 90 88 83 82 80 78 77 75
333 351 347 352 358 351 355 32 121 124 175 192 199 192 165 190 239 237 257 203 163 144 155 147 183 178 180 194 179 206 252 273 336 25 77 91 93 89 87 88 85 83 80
339 5 6 360 357 353 7 14 65 125 225 235 229 230 224 212 240 230 226 234 209 160 162 163 175 210 211 205 197 240 263 293 274 338 93 95 93 95 94 92 88 83 80
341 9 358 351 342 347 358 2 38 143 250 254 235 217 214 211 199 220 247 229 219 187 169 182 199 207 211 215 208 238 262 336 119 114 96 102 98 97 96 94 92 88 88
327 5 360 345 347 348 355 354 347 319 242 222 206 206 212 231 231 221 211 222 220 199 184 186 183 191 191 178 197 147 125 242 238 182 117 111 102 99 101 98 91 90 91
322 87 1 347 359 359 6 354 343 342 279 207 219 207 214 232 232 230 228 220 217 194 202 194 186 195 206 183 181 214 245 250 248 208 142 135 121 107 104 102 99 91 89
165 99 22 4 356 6 8 360 350 317 298 177 211 220 221 227 232 233 234 230 216 202 179 210 212 215 201 218 220 211 242 251 252 246 239 221 211 137 133 115 109 103 94
168 59 18 2 5 11 358 8 359 339 123 167 242 244 223 230 232 233 229 220 212 198 186 217 201 209 215 228 224 229 243 251 256 256 256 247 252 263 238 241 270 288 328
197 115 67 42 42 28 2 7 6 36 99 327 259 236 219 231 230 222 226 220 203 189 204 203 220 214 218 232 240 240 243 249 255 263 258 257 255 258 262 249 260 279 290
234 142 93 63 39 30 17 18 21 38 84 346 295 286 189 235 221 221 218 220 208 196 201 207 209 225 233 236 245 250 258 263 262 266 264 264 264 259 258 267 269 278 283
224 158 113 84 76 61 58 39 38 50 78 10 314 322 155 226 214 218 219 217 215 198 201 220 226 218 238 235 240 258 267 273 269 272 272 268 268 270 269 269 273 278 284
183 163 137 114 114 96 89 82 46 82 82 18 347 342 239 217 210 219 219 218 213 214 195 203 219 234 246 224 250 252 260 270 271 272 272 270 269 273 273 273 275 278 282
177 167 149 129 117 97 93 76 63 83 35 358 46 297 266 238 229 228 228 224 212 216 218 204 209 220 228 228 234 263 263 269 271 275 270 270 272 272 275 276 276 278 280
176 167 147 128 116 84 98 90 116 120 118 46 333 324 278 234 243 241 231 229 227 228 234 219 213 232 236 218 249 266 270 280 274 273 279 276 275 274 274 277 276 278 279
185 168 149 123 99 80 108 100 103 115 115 119 77 131 281 263 246 240 237 234 231 225 238 226 227 225 238 236 247 257 269 274 276 280 275 282 279 279 276 273 276 278 280
215 173 155 135 100 88 104 106 110 117 117 111 125 45 295 268 251 243 247 227 238 243 240 241 237 230 234 252 248 254 260 266 272 282 279 286 278 281 281 282 277 277 279